Hourly Weather Belmopan

Today, 16 April, Friday

Time Temperature Precipitation Wind Pressure Humidity
00:00 +23°C° 0 mm 1 mps 751 mmHg 98%
01:00 +24°C° 0 mm 1 mps 750 mmHg 97%
02:00 +24°C° 0 mm 1 mps 750 mmHg 96%
03:00 +24°C° 0 mm 1 mps 749 mmHg 94%
04:00 +24°C° 0 mm 1 mps 749 mmHg 93%
05:00 +25°C° 0 mm 1 mps 749 mmHg 92%
06:00 +25°C° 0 mm 1 mps 750 mmHg 90%
07:00 +27°C° 0 mm 1 mps 750 mmHg 82%
08:00 +29°C° 0 mm 2 mps 750 mmHg 74%
09:00 +31°C° 0 mm 2 mps 750 mmHg 66%
10:00 +32°C° 0 mm 2 mps 750 mmHg 58%
11:00 +35°C° 0 mm 2 mps 749 mmHg 51%
12:00 +37°C° 0 mm 3 mps 749 mmHg 44%
13:00 +37°C° 0 mm 3 mps 748 mmHg 43%
14:00 +37°C° 0 mm 3 mps 747 mmHg 42%
15:00 +38°C° 0 mm 3 mps 746 mmHg 40%
16:00 +35°C° 0 mm 3 mps 747 mmHg 51%
17:00 +33°C° 0 mm 3 mps 747 mmHg 62%
18:00 +29°C° 0 mm 2 mps 747 mmHg 72%
19:00 +28°C° 0 mm 2 mps 748 mmHg 80%
20:00 +26°C° 0 mm 2 mps 749 mmHg 88%
21:00 +25°C° 0 mm 1 mps 749 mmHg 96%
22:00 +25°C° 0 mm 1 mps 749 mmHg 97%
23:00 +25°C° 0 mm 1 mps 749 mmHg 97%

Tomorrow, 17 April, Saturday

Time Temperature Precipitation Wind Pressure Humidity
00:00 +25°C° 0 mm 1 mps 749 mmHg 98%
01:00 +25°C° 0 mm 1 mps 748 mmHg 97%
02:00 +25°C° 0 mm 1 mps 748 mmHg 97%
03:00 +25°C° 0 mm 1 mps 748 mmHg 97%
04:00 +25°C° 0 mm 1 mps 748 mmHg 96%
05:00 +23°C° 0 mm 0 mps 748 mmHg 95%
06:00 +24°C° 0 mm 0 mps 748 mmHg 94%
07:00 +28°C° 0 mm 1 mps 749 mmHg 81%
08:00 +31°C° 0 mm 1 mps 749 mmHg 67%
09:00 +34°C° 0 mm 1 mps 749 mmHg 53%
10:00 +37°C° 0 mm 2 mps 749 mmHg 47%
11:00 +39°C° 0 mm 2 mps 748 mmHg 41%
12:00 +40°C° 0 mm 2 mps 747 mmHg 35%
13:00 +40°C° 0 mm 3 mps 747 mmHg 36%
14:00 +40°C° 0 mm 3 mps 746 mmHg 37%
15:00 +41°C° 0 mm 4 mps 745 mmHg 38%
16:00 +37°C° 0 mm 3 mps 746 mmHg 50%
17:00 +34°C° 0 mm 3 mps 746 mmHg 62%
18:00 +31°C° 0 mm 3 mps 747 mmHg 74%
19:00 +29°C° 0 mm 2 mps 748 mmHg 79%
20:00 +28°C° 0 mm 2 mps 748 mmHg 85%
21:00 +27°C° 0 mm 2 mps 749 mmHg 91%
22:00 +27°C° 0 mm 1 mps 749 mmHg 92%
23:00 +27°C° 0 mm 1 mps 749 mmHg 92%

Day after tomorrow, 18 April, Sunday

Time Temperature Precipitation Wind Pressure Humidity
00:00 +25°C° 0 mm 0 mps 749 mmHg 93%
01:00 +25°C° 0 mm 0 mps 749 mmHg 94%
02:00 +25°C° 0 mm 0 mps 748 mmHg 95%
03:00 +24°C° 0 mm 0 mps 748 mmHg 96%
04:00 +24°C° 0.2 mm 0 mps 749 mmHg 96%
05:00 +25°C° 0.2 mm 0 mps 749 mmHg 96%
06:00 +25°C° 0.2 mm 0 mps 749 mmHg 96%
07:00 +26°C° 0 mm 0 mps 750 mmHg 86%
08:00 +28°C° 0 mm 0 mps 750 mmHg 77%
09:00 +30°C° 0 mm 0 mps 751 mmHg 67%
10:00 +34°C° 0 mm 1 mps 750 mmHg 59%
11:00 +36°C° 0 mm 1 mps 749 mmHg 50%
12:00 +39°C° 0 mm 1 mps 749 mmHg 42%
13:00 +37°C° 0.3 mm 1 mps 748 mmHg 46%
14:00 +36°C° 0.3 mm 1 mps 747 mmHg 50%
15:00 +36°C° 0.3 mm 2 mps 746 mmHg 54%
16:00 +31°C° 16.8 mm 2 mps 747 mmHg 69%
17:00 +26°C° 16.8 mm 2 mps 748 mmHg 83%
18:00 +21°C° 16.8 mm 3 mps 750 mmHg 97%
19:00 +21°C° 1.3 mm 2 mps 750 mmHg 97%
20:00 +23°C° 1.3 mm 2 mps 751 mmHg 97%
21:00 +23°C° 1.3 mm 1 mps 752 mmHg 97%
22:00 +23°C° 0.6 mm 1 mps 752 mmHg 98%
23:00 +23°C° 0.6 mm 1 mps 751 mmHg 98%

19 April, Monday

Time Temperature Precipitation Wind Pressure Humidity
00:00 +23°C° 0.6 mm 1 mps 751 mmHg 98%
01:00 +23°C° 0 mm 1 mps 751 mmHg 98%
02:00 +23°C° 0 mm 1 mps 751 mmHg 98%
03:00 +23°C° 0 mm 1 mps 751 mmHg 98%
04:00 +23°C° 0 mm 1 mps 751 mmHg 98%
05:00 +23°C° 0 mm 1 mps 751 mmHg 98%
06:00 +23°C° 0 mm 1 mps 751 mmHg 97%
07:00 +25°C° 0 mm 1 mps 752 mmHg 87%
08:00 +27°C° 0 mm 1 mps 752 mmHg 77%
09:00 +30°C° 0 mm 1 mps 752 mmHg 67%
10:00 +31°C° 0.1 mm 1 mps 752 mmHg 62%
11:00 +33°C° 0.1 mm 1 mps 751 mmHg 58%
12:00 +34°C° 0.1 mm 1 mps 751 mmHg 54%
13:00 +34°C° 0.1 mm 1 mps 750 mmHg 54%
14:00 +34°C° 0.1 mm 1 mps 749 mmHg 54%
15:00 +34°C° 0.1 mm 1 mps 749 mmHg 54%
16:00 +32°C° 0.1 mm 1 mps 749 mmHg 64%
17:00 +30°C° 0.1 mm 1 mps 749 mmHg 73%
18:00 +28°C° 0.1 mm 1 mps 749 mmHg 82%
19:00 +27°C° 0 mm 1 mps 750 mmHg 86%
20:00 +27°C° 0 mm 1 mps 750 mmHg 89%
21:00 +26°C° 0 mm 1 mps 751 mmHg 92%
22:00 +26°C° 0.1 mm 1 mps 751 mmHg 93%
23:00 +23°C° 0.1 mm 0 mps 751 mmHg 94%

20 April, Tuesday

Time Temperature Precipitation Wind Pressure Humidity
00:00 +23°C° 0.1 mm 0 mps 751 mmHg 95%
01:00 +23°C° 0 mm 0 mps 751 mmHg 95%
02:00 +23°C° 0 mm 0 mps 750 mmHg 95%
03:00 +22°C° 0 mm 0 mps 750 mmHg 95%
04:00 +22°C° 0 mm 0 mps 750 mmHg 94%
05:00 +22°C° 0 mm 0 mps 751 mmHg 94%
06:00 +22°C° 0 mm 0 mps 751 mmHg 93%
07:00 +25°C° 0 mm 0 mps 751 mmHg 82%
08:00 +29°C° 0 mm 1 mps 752 mmHg 70%
09:00 +32°C° 0 mm 1 mps 752 mmHg 59%
10:00 +34°C° 0 mm 1 mps 751 mmHg 53%
11:00 +35°C° 0 mm 1 mps 751 mmHg 48%
12:00 +38°C° 0 mm 2 mps 750 mmHg 42%
13:00 +37°C° 0 mm 2 mps 750 mmHg 45%
14:00 +36°C° 0 mm 2 mps 749 mmHg 47%
15:00 +36°C° 0 mm 3 mps 749 mmHg 50%
16:00 +34°C° 0 mm 3 mps 749 mmHg 60%
17:00 +31°C° 0 mm 3 mps 749 mmHg 70%
18:00 +29°C° 0 mm 3 mps 750 mmHg 80%
19:00 +28°C° 0 mm 2 mps 751 mmHg 84%
20:00 +27°C° 0 mm 2 mps 751 mmHg 89%
21:00 +27°C° 0 mm 1 mps 752 mmHg 94%
22:00 +26°C° 0.1 mm 1 mps 752 mmHg 95%
23:00 +24°C° 0.1 mm 0 mps 752 mmHg 97%

21 April, Wednesday

Time Temperature Precipitation Wind Pressure Humidity
00:00 +24°C° 0.1 mm 0 mps 752 mmHg 99%
01:00 +24°C° 0.1 mm 0 mps 752 mmHg 98%
02:00 +24°C° 0.1 mm 0 mps 751 mmHg 98%
03:00 +24°C° 0.1 mm 0 mps 751 mmHg 98%
04:00 +24°C° 0.2 mm 0 mps 752 mmHg 98%
05:00 +24°C° 0.2 mm 0 mps 752 mmHg 98%
06:00 +24°C° 0.2 mm 0 mps 752 mmHg 97%
07:00 +25°C° 0.8 mm 0 mps 752 mmHg 95%
08:00 +26°C° 0.8 mm 0 mps 753 mmHg 92%
09:00 +28°C° 0.8 mm 1 mps 753 mmHg 90%
10:00 +29°C° 1.9 mm 1 mps 753 mmHg 90%
11:00 +29°C° 1.9 mm 1 mps 753 mmHg 90%
12:00 +29°C° 1.9 mm 1 mps 753 mmHg 90%
13:00 +29°C° 1.3 mm 1 mps 752 mmHg 89%
14:00 +29°C° 1.3 mm 1 mps 752 mmHg 88%
15:00 +29°C° 1.3 mm 2 mps 751 mmHg 88%
16:00 +28°C° 0.3 mm 1 mps 751 mmHg 89%
17:00 +27°C° 0.3 mm 1 mps 752 mmHg 90%
18:00 +27°C° 0.3 mm 1 mps 752 mmHg 92%
19:00 +26°C° 0.1 mm 1 mps 752 mmHg 94%
20:00 +26°C° 0.1 mm 1 mps 753 mmHg 96%
21:00 +25°C° 0.1 mm 1 mps 753 mmHg 98%
22:00 +25°C° 0.1 mm 1 mps 753 mmHg 98%
23:00 +25°C° 0.1 mm 1 mps 753 mmHg 98%
Show more